Terminal Aerodrome Forecast
Issued by NWS Sterling, VA

Home | Current Version | Previous Version | Text Only | Print | Product List | Glossary On
Versions: 1 2 3 4 5 6 7 8 9 10 11 12
000
FTUS41 KLWX 282300
TAFCHO
TAF
KCHO 282327Z 2900/2924 32008KT P6SM SCT050
     FM290600 VRB03KT P6SM SCT090
     FM291500 34007KT P6SM SCT090=

USA.gov is the U.S. government's official web portal to all federal, state and local government web resources and services.